Location: Flensburg
(54.6357°N, 9.5142°E)
Time: 00:21:35
(UTC+01:00)

ISS - Pass Details

Date: 11 November 2017
Orbit: 402 x 407 km, 51.6° (Epoch: 19 November)

Event Time Altitude Azimuth Distance (km) Brightness Sun altitude
Exits shadow 05:10:04 38° 142° (SE) 628 -2.7 -22.2°
Drops below altitude 10° 05:12:27 10° 110° (ESE) 1,457 0.0 -21.9°
Sets 05:14:34 0° 105° (ESE) 2,315 1.4 -21.6°
